,,,PA_Meas_PMT16A,,PR_Meas_QMR101_102,,RH_Meas_QMH101,,SR_Meas_QMS101,,TA_Meas_QMH101,,GenWind,,GenWind,
date,time,status,PA,status,PR,status,RH,status,SR,status,TA,status,DirAvg,status,SpdAvg,
2011-02-13, 00:00:05,VALID,1003.28,VALID,0,INVALID,163.746,VALID,0.100563,VALID,23.5053,VALID,73,VALID,0.00585938,
2011-02-13, 00:01:05,VALID,1003.25,VALID,0,INVALID,163.746,VALID,0,VALID,23.4452,VALID,73,VALID,0.220703,
2011-02-13, 00:02:05,VALID,1003.25,VALID,0,INVALID,163.746,VALID,0,VALID,23.4257,VALID,73,VALID,0.0566406,
2011-02-13, 00:03:05,VALID,1003.23,VALID,0,INVALID,163.723,VALID,0,VALID,23.447,VALID,73,VALID,0,
2011-02-13, 00:04:05,VALID,1003.21,VALID,0,INVALID,163.769,VALID,0.100563,VALID,23.4487,VALID,73,VALID,0.06875,
2011-02-13, 00:05:05,VALID,1003.21,VALID,0,INVALID,163.739,VALID,0,VALID,23.3886,VALID,73,VALID,0,
2011-02-13, 00:06:05,VALID,1003.19,VALID,0,INVALID,163.746,VALID,0.100563,VALID,23.3886,VALID,73,VALID,0.003125,
2011-02-13, 00:07:05,VALID,1003.18,VALID,0,INVALID,163.769,VALID,0,VALID,23.3904,VALID,73,VALID,0.123047,
2011-02-13, 00:08:05,VALID,1003.19,VALID,0,INVALID,163.739,VALID,0,VALID,23.3514,VALID,73,VALID,0.0820313,
2011-02-13, 00:09:05,VALID,1003.16,VALID,0,INVALID,163.769,VALID,0.100563,VALID,23.2913,VALID,73,VALID,0.259375,
2011-02-13, 00:10:05,VALID,1003.15,VALID,0,INVALID,163.739,VALID,0,VALID,23.2524,VALID,73,VALID,0.264062,
2011-02-13, 00:11:05,VALID,1003.14,VALID,0,INVALID,163.746,VALID,0,VALID,23.2559,VALID,73,VALID,0.280859,
2011-02-13, 00:12:05,VALID,1003.1,VALID,0,INVALID,163.762,VALID,0,VALID,23.2559,VALID,73,VALID,0,
2011-02-13, 00:13:05,VALID,1003.08,VALID,0,INVALID,163.739,VALID,0,VALID,23.2559,VALID,73,VALID,0.0421875,
2011-02-13, 00:14:05,VALID,1003.08,VALID,0,INVALID,163.8,VALID,0,VALID,23.2736,VALID,73,VALID,0.0207031,
2011-02-13, 00:15:05,VALID,1003.07,VALID,0,INVALID,163.754,VALID,0,VALID,23.3125,VALID,73,VALID,0.311328,
2011-02-13, 00:16:05,VALID,1003.05,VALID,0,INVALID,163.739,VALID,0,VALID,23.3125,VALID,73,VALID,0.363281,
2011-02-13, 00:17:05,VALID,1003.04,VALID,0,INVALID,163.746,VALID,0,VALID,23.3125,VALID,73,VALID,0.314453,
2011-02-13, 00:18:05,VALID,1003.04,VALID,0,INVALID,163.754,VALID,0,VALID,23.3125,VALID,73,VALID,0.372656,
2011-02-13, 00:19:05,VALID,1003.01,VALID,0,INVALID,163.746,VALID,0,VALID,23.3125,VALID,73,VALID,0.392188,
2011-02-13, 00:20:05,VALID,1002.99,VALID,0,INVALID,163.762,VALID,0,VALID,23.3337,VALID,73,VALID,0.300781,
2011-02-13, 00:21:05,VALID,1002.95,VALID,0,INVALID,163.754,VALID,0,VALID,23.3125,VALID,73,VALID,0.119141,
2011-02-13, 00:22:05,VALID,1002.96,VALID,0,INVALID,163.754,VALID,0,VALID,23.332,VALID,73,VALID,0.188672,
2011-02-13, 00:23:05,VALID,1002.94,VALID,0,INVALID,163.731,VALID,0,VALID,23.3514,VALID,73,VALID,0.339844,
2011-02-13, 00:24:05,VALID,1002.92,VALID,0,INVALID,163.762,VALID,0,VALID,23.3921,VALID,73,VALID,0.1125,
2011-02-13, 00:25:05,VALID,1002.89,VALID,0,INVALID,163.762,VALID,0,VALID,23.4116,VALID,73,VALID,0.144922,
2011-02-13, 00:26:05,VALID,1002.87,VALID,0,INVALID,163.739,VALID,0,VALID,23.3904,VALID,73,VALID,0.205078,
2011-02-13, 00:27:05,VALID,1002.87,VALID,0,INVALID,163.762,VALID,0,VALID,23.3302,VALID,73,VALID,0,
2011-02-13, 00:28:05,VALID,1002.85,VALID,0,INVALID,163.731,VALID,0.100563,VALID,23.2913,VALID,73,VALID,0,
2011-02-13, 00:29:05,VALID,1002.85,VALID,0,INVALID,163.754,VALID,0,VALID,23.2524,VALID,73,VALID,0,
2011-02-13, 00:30:05,VALID,1002.81,VALID,0,INVALID,163.746,VALID,0,VALID,23.2347,VALID,73,VALID,0,
2011-02-13, 00:31:05,VALID,1002.82,VALID,0,INVALID,163.754,VALID,0,VALID,23.2347,VALID,73,VALID,0,
2011-02-13, 00:32:05,VALID,1002.8,VALID,0,INVALID,163.769,VALID,0.100563,VALID,23.2347,VALID,73,VALID,0.283984,
2011-02-13, 00:33:05,VALID,1002.79,VALID,0,INVALID,163.769,VALID,0.100563,VALID,23.2736,VALID,70,VALID,0.444141,
2011-02-13, 00:34:05,VALID,1002.77,VALID,0,INVALID,163.746,VALID,0,VALID,23.2718,VALID,47,VALID,0.479688,
2011-02-13, 00:35:05,VALID,1002.77,VALID,0,INVALID,163.746,VALID,0.100563,VALID,23.2736,VALID,19,VALID,0.496094,
2011-02-13, 00:36:05,VALID,1002.78,VALID,0,INVALID,163.762,VALID,0,VALID,23.2134,VALID,12,VALID,0.609375,
2011-02-13, 00:37:05,VALID,1002.72,VALID,0,INVALID,163.792,VALID,0,VALID,23.1957,VALID,8,VALID,0.678906,
2011-02-13, 00:38:05,VALID,1002.66,VALID,0,INVALID,163.731,VALID,0.100563,VALID,23.1957,VALID,8,VALID,0.523438,
2011-02-13, 00:39:05,VALID,1002.67,VALID,0,INVALID,163.754,VALID,0.100563,VALID,23.1763,VALID,8,VALID,0.363672,
2011-02-13, 00:40:05,VALID,1002.68,VALID,0,INVALID,163.784,VALID,0,VALID,23.1551,VALID,8,VALID,0.450781,
2011-02-13, 00:41:05,VALID,1002.64,VALID,0,INVALID,163.762,VALID,0,VALID,23.1763,VALID,8,VALID,0.260547,
2011-02-13, 00:42:05,VALID,1002.61,VALID,0,INVALID,163.769,VALID,0.100563,VALID,23.1551,VALID,8,VALID,0.316406,
2011-02-13, 00:43:05,VALID,1002.6,VALID,0,INVALID,163.754,VALID,0,VALID,23.194,VALID,8,VALID,0.537891,
2011-02-13, 00:44:05,VALID,1002.58,VALID,0,INVALID,163.784,VALID,0,VALID,23.2134,VALID,8,VALID,0.461719,
2011-02-13, 00:45:05,VALID,1002.58,VALID,0,INVALID,163.769,VALID,0,VALID,23.194,VALID,8,VALID,0.362109,
2011-02-13, 00:46:05,VALID,1002.57,VALID,0,INVALID,163.754,VALID,0,VALID,23.1957,VALID,8,VALID,0.376172,
2011-02-13, 00:47:05,VALID,1002.55,VALID,0,INVALID,163.769,VALID,0.100563,VALID,23.1356,VALID,8,VALID,0.351563,
2011-02-13, 00:48:05,VALID,1002.57,VALID,0,INVALID,163.769,VALID,0.100563,VALID,23.0772,VALID,8,VALID,0.304297,
2011-02-13, 00:49:05,VALID,1002.52,VALID,0,INVALID,163.784,VALID,0.100563,VALID,23.0578,VALID,8,VALID,0.329688,
2011-02-13, 00:50:05,VALID,1002.55,VALID,0,INVALID,163.754,VALID,0.100563,VALID,23.0189,VALID,8,VALID,0.409766,
2011-02-13, 00:51:05,VALID,1002.59,VALID,0,INVALID,163.777,VALID,0,VALID,23.0401,VALID,8,VALID,0.404297,
2011-02-13, 00:52:05,VALID,1002.62,VALID,0,INVALID,163.792,VALID,0.100563,VALID,23.0401,VALID,8,VALID,0.467969,
2011-02-13, 00:53:05,VALID,1002.63,VALID,0,INVALID,163.762,VALID,0,VALID,22.9994,VALID,8,VALID,0.389844,
2011-02-13, 00:54:05,VALID,1002.65,VALID,0,INVALID,163.754,VALID,0.100563,VALID,22.98,VALID,8,VALID,0.455859,
2011-02-13, 00:55:05,VALID,1002.63,VALID,0,INVALID,163.769,VALID,0,VALID,22.9994,VALID,8,VALID,0.419922,
2011-02-13, 00:56:05,VALID,1002.66,VALID,0,INVALID,163.792,VALID,0,VALID,23.0224,VALID,8,VALID,0.351563,
2011-02-13, 00:57:05,VALID,1002.68,VALID,0,INVALID,163.784,VALID,0,VALID,23.0206,VALID,8,VALID,0.383203,
2011-02-13, 00:58:05,VALID,1002.67,VALID,0,INVALID,163.777,VALID,0,VALID,23.0401,VALID,8,VALID,0.379297,
2011-02-13, 00:59:05,VALID,1002.64,VALID,0,INVALID,163.784,VALID,0,VALID,23.0401,VALID,8,VALID,0.393359,
2011-02-13, 01:00:05,VALID,1002.65,VALID,0,INVALID,163.769,VALID,0,VALID,23.079,VALID,8,VALID,0.435937,
2011-02-13, 01:01:05,VALID,1002.66,VALID,0,INVALID,163.762,VALID,0,VALID,23.0984,VALID,8,VALID,0.312109,
2011-02-13, 01:02:05,VALID,1002.68,VALID,0,INVALID,163.762,VALID,0,VALID,23.1162,VALID,8,VALID,0.421094,
2011-02-13, 01:03:05,VALID,1002.65,VALID,0,INVALID,163.8,VALID,0,VALID,23.1568,VALID,8,VALID,0.279297,
2011-02-13, 01:04:05,VALID,1002.66,VALID,0,INVALID,163.762,VALID,0,VALID,23.1975,VALID,8,VALID,0.253906,
2011-02-13, 01:05:05,VALID,1002.63,VALID,0,INVALID,163.754,VALID,0,VALID,23.194,VALID,8,VALID,0,
2011-02-13, 01:06:05,VALID,1002.64,VALID,0,INVALID,163.739,VALID,0,VALID,23.2152,VALID,8,VALID,0,
2011-02-13, 01:07:05,VALID,1002.63,VALID,0,INVALID,163.739,VALID,0,VALID,23.217,VALID,8,VALID,0.00117188,
2011-02-13, 01:08:05,VALID,1002.63,VALID,0,INVALID,163.762,VALID,0,VALID,23.2152,VALID,8,VALID,0,
2011-02-13, 01:09:05,VALID,1002.59,VALID,0,INVALID,163.762,VALID,0,VALID,23.2364,VALID,8,VALID,0.213672,
2011-02-13, 01:10:05,VALID,1002.6,VALID,0,INVALID,163.769,VALID,0,VALID,23.2364,VALID,8,VALID,0.362891,
2011-02-13, 01:11:05,VALID,1002.56,VALID,0,INVALID,163.739,VALID,0,VALID,23.2152,VALID,8,VALID,0.442578,
2011-02-13, 01:12:05,VALID,1002.54,VALID,0,INVALID,163.777,VALID,0,VALID,23.2152,VALID,8,VALID,0.376563,
2011-02-13, 01:13:05,VALID,1002.52,VALID,0,INVALID,163.754,VALID,0,VALID,23.2754,VALID,8,VALID,0.388672,
2011-02-13, 01:14:05,VALID,1002.48,VALID,0,INVALID,163.762,VALID,0,VALID,23.2736,VALID,8,VALID,0.289063,
2011-02-13, 01:15:05,VALID,1002.49,VALID,0,INVALID,163.762,VALID,0,VALID,23.2541,VALID,8,VALID,0.495313,
2011-02-13, 01:16:05,VALID,1002.47,VALID,0,INVALID,163.769,VALID,0,VALID,23.2152,VALID,8,VALID,0.473047,
2011-02-13, 01:17:05,VALID,1002.48,VALID,0,INVALID,163.762,VALID,0,VALID,23.1763,VALID,8,VALID,0.346094,
2011-02-13, 01:18:05,VALID,1002.44,VALID,0,INVALID,163.762,VALID,0,VALID,23.1586,VALID,8,VALID,0.580078,
2011-02-13, 01:19:05,VALID,1002.45,VALID,0,INVALID,163.769,VALID,0,VALID,23.1197,VALID,8,VALID,0.503906,
2011-02-13, 01:20:05,VALID,1002.43,VALID,0,INVALID,163.784,VALID,0,VALID,23.0401,VALID,8,VALID,0.401563,
2011-02-13, 01:21:05,VALID,1002.39,VALID,0,INVALID,163.8,VALID,0,VALID,23.0206,VALID,8,VALID,0.397266,
2011-02-13, 01:22:05,VALID,1002.38,VALID,0,INVALID,163.784,VALID,0,VALID,23.0224,VALID,8,VALID,0.433594,
2011-02-13, 01:23:05,VALID,1002.36,VALID,0,INVALID,163.784,VALID,0,VALID,23.0401,VALID,8,VALID,0.510938,
2011-02-13, 01:24:05,VALID,1002.33,VALID,0,INVALID,163.762,VALID,0,VALID,23.1002,VALID,8,VALID,0.636328,
2011-02-13, 01:25:05,VALID,1002.31,VALID,0,INVALID,163.769,VALID,0,VALID,23.0807,VALID,8,VALID,0.442187,
2011-02-13, 01:26:05,VALID,1002.32,VALID,0,INVALID,163.784,VALID,0,VALID,23.0401,VALID,8,VALID,0.510938,
2011-02-13, 01:27:05,VALID,1002.33,VALID,0,INVALID,163.769,VALID,0,VALID,23.0012,VALID,8,VALID,0.320703,
2011-02-13, 01:28:05,VALID,1002.32,VALID,0,INVALID,163.739,VALID,0,VALID,23.0029,VALID,8,VALID,0.307422,
2011-02-13, 01:29:05,VALID,1002.32,VALID,0,INVALID,163.777,VALID,0,VALID,22.9834,VALID,8,VALID,0.438281,
2011-02-13, 01:30:05,VALID,1002.3,VALID,0,INVALID,163.769,VALID,0,VALID,22.9622,VALID,8,VALID,0.358594,
2011-02-13, 01:31:05,VALID,1002.29,VALID,0,INVALID,163.784,VALID,0,VALID,22.9834,VALID,8,VALID,0.289844,
2011-02-13, 01:32:05,VALID,1002.29,VALID,0,INVALID,163.777,VALID,0,VALID,22.9445,VALID,8,VALID,0.174219,
2011-02-13, 01:33:05,VALID,1002.29,VALID,0,INVALID,163.8,VALID,0,VALID,22.8844,VALID,8,VALID,0.107422,
2011-02-13, 01:34:05,VALID,1002.3,VALID,0,INVALID,163.792,VALID,0,VALID,22.9039,VALID,8,VALID,0.103906,
2011-02-13, 01:35:05,VALID,1002.26,VALID,0,INVALID,163.792,VALID,0,VALID,22.8844,VALID,8,VALID,0.304297,
2011-02-13, 01:36:05,VALID,1002.25,VALID,0,INVALID,163.784,VALID,0,VALID,22.8844,VALID,8,VALID,0.367578,
2011-02-13, 01:37:05,VALID,1002.23,VALID,0,INVALID,163.784,VALID,0,VALID,22.8861,VALID,8,VALID,0.336719,
2011-02-13, 01:38:05,VALID,1002.21,VALID,0,INVALID,163.777,VALID,0,VALID,22.8455,VALID,8,VALID,0.303516,
2011-02-13, 01:39:05,VALID,1002.18,VALID,0,INVALID,163.815,VALID,0,VALID,22.8667,VALID,8,VALID,0.283203,
2011-02-13, 01:40:05,VALID,1002.15,VALID,0,INVALID,163.777,VALID,0,VALID,22.8472,VALID,8,VALID,0.286719,
2011-02-13, 01:41:05,VALID,1002.12,VALID,0,INVALID,163.792,VALID,0,VALID,22.826,VALID,8,VALID,0.249609,
2011-02-13, 01:42:05,VALID,1002.11,VALID,0,INVALID,163.792,VALID,0,VALID,22.826,VALID,8,VALID,0.138672,
2011-02-13, 01:43:05,VALID,1002.07,VALID,0,INVALID,163.762,VALID,0,VALID,22.9056,VALID,8,VALID,0,
2011-02-13, 01:44:05,VALID,1002.09,VALID,0,INVALID,163.777,VALID,0,VALID,22.9233,VALID,8,VALID,0,
2011-02-13, 01:45:05,VALID,1002.06,VALID,0,INVALID,163.762,VALID,0,VALID,22.964,VALID,8,VALID,0,
2011-02-13, 01:46:05,VALID,1002.09,VALID,0,INVALID,163.8,VALID,0,VALID,22.9233,VALID,8,VALID,0,
2011-02-13, 01:47:05,VALID,1002.05,VALID,0,INVALID,163.777,VALID,0,VALID,22.964,VALID,8,VALID,0,
2011-02-13, 01:48:05,VALID,1002.06,VALID,0,INVALID,163.777,VALID,0,VALID,22.9622,VALID,8,VALID,0.157813,
2011-02-13, 01:49:05,VALID,1002.08,VALID,0,INVALID,163.762,VALID,0,VALID,22.9817,VALID,8,VALID,0.414453,
2011-02-13, 01:50:05,VALID,1002.08,VALID,0,INVALID,163.777,VALID,0,VALID,22.9622,VALID,8,VALID,0.453906,
2011-02-13, 01:51:05,VALID,1002.09,VALID,0,INVALID,163.769,VALID,0,VALID,22.9233,VALID,8,VALID,0.439453,
2011-02-13, 01:52:05,VALID,1002.07,VALID,0,INVALID,163.792,VALID,0,VALID,22.9251,VALID,8,VALID,0.387109,
2011-02-13, 01:53:05,VALID,1002.07,VALID,0,INVALID,163.784,VALID,0,VALID,22.8844,VALID,8,VALID,0.494531,
2011-02-13, 01:54:05,VALID,1002.04,VALID,0,INVALID,163.762,VALID,0,VALID,22.8649,VALID,8,VALID,0.492578,
2011-02-13, 01:55:04,VALID,1002.03,VALID,0,INVALID,163.784,VALID,0,VALID,22.8649,VALID,8,VALID,0.346484,
2011-02-13, 01:56:04,VALID,1002.03,VALID,0,INVALID,163.777,VALID,0,VALID,22.8649,VALID,8,VALID,0.416797,
2011-02-13, 01:57:04,VALID,1002.03,VALID,0,INVALID,163.815,VALID,0,VALID,22.8649,VALID,8,VALID,0.322266,
2011-02-13, 01:58:04,VALID,1002.05,VALID,0,INVALID,163.777,VALID,0,VALID,22.8438,VALID,8,VALID,0.314844,
2011-02-13, 01:59:04,VALID,1002.08,VALID,0,INVALID,163.823,VALID,0,VALID,22.8455,VALID,8,VALID,0.4,
2011-02-13, 02:00:04,VALID,1002.1,VALID,0,INVALID,163.8,VALID,0,VALID,22.8667,VALID,8,VALID,0.387891,
2011-02-13, 02:01:04,VALID,1002.09,VALID,0,INVALID,163.792,VALID,0,VALID,22.8455,VALID,7,VALID,0.38125,
2011-02-13, 02:02:04,VALID,1002.11,VALID,0,INVALID,163.792,VALID,0,VALID,22.826,VALID,7,VALID,0.415625,
2011-02-13, 02:03:04,VALID,1002.11,VALID,0,INVALID,163.807,VALID,0,VALID,22.8455,VALID,7,VALID,0.455859,
2011-02-13, 02:04:04,VALID,1002.13,VALID,0,INVALID,163.777,VALID,0,VALID,22.8667,VALID,7,VALID,0.50625,
2011-02-13, 02:05:04,VALID,1002.13,VALID,0,INVALID,163.792,VALID,0,VALID,22.8649,VALID,7,VALID,0.190234,
2011-02-13, 02:06:04,VALID,1002.14,VALID,0,INVALID,163.784,VALID,0,VALID,22.8649,VALID,7,VALID,0.155469,
2011-02-13, 02:07:04,VALID,1002.14,VALID,0,INVALID,163.777,VALID,0,VALID,22.8667,VALID,7,VALID,0.0980469,
2011-02-13, 02:08:04,VALID,1002.09,VALID,0,INVALID,163.784,VALID,0,VALID,22.8649,VALID,7,VALID,0,
2011-02-13, 02:09:04,VALID,1002.08,VALID,0,INVALID,163.8,VALID,0,VALID,22.8455,VALID,7,VALID,0,
2011-02-13, 02:10:04,VALID,1002.06,VALID,0,INVALID,163.8,VALID,0,VALID,22.8649,VALID,7,VALID,0.219141,
2011-02-13, 02:11:04,VALID,1002.04,VALID,0,INVALID,163.792,VALID,0,VALID,22.8455,VALID,7,VALID,0.346484,
2011-02-13, 02:12:04,VALID,1002.01,VALID,0,INVALID,163.807,VALID,0,VALID,22.826,VALID,7,VALID,0.521094,
2011-02-13, 02:13:04,VALID,1001.99,VALID,0,INVALID,163.8,VALID,0,VALID,22.826,VALID,7,VALID,0.493359,
2011-02-13, 02:14:04,VALID,1001.99,VALID,0,INVALID,163.807,VALID,0,VALID,22.8066,VALID,7,VALID,0.348047,
2011-02-13, 02:15:04,VALID,1001.93,VALID,0,INVALID,163.769,VALID,0,VALID,22.7871,VALID,7,VALID,0.240625,
2011-02-13, 02:16:04,VALID,1001.92,VALID,0,INVALID,163.8,VALID,0,VALID,22.7287,VALID,7,VALID,0.158984,
2011-02-13, 02:17:04,VALID,1001.94,VALID,0,INVALID,163.792,VALID,0,VALID,22.7305,VALID,7,VALID,0,
2011-02-13, 02:18:04,VALID,1001.91,VALID,0,INVALID,163.807,VALID,0,VALID,22.7305,VALID,7,VALID,0,
2011-02-13, 02:19:04,VALID,1001.91,VALID,0,INVALID,163.8,VALID,0,VALID,22.6704,VALID,7,VALID,0.0257812,
2011-02-13, 02:20:04,VALID,1001.91,VALID,0,INVALID,163.8,VALID,0,VALID,22.6915,VALID,7,VALID,0.371875,
2011-02-13, 02:21:04,VALID,1001.88,VALID,0,INVALID,163.8,VALID,0,VALID,22.6509,VALID,7,VALID,0.521875,
2011-02-13, 02:22:04,VALID,1001.86,VALID,0,INVALID,163.815,VALID,0,VALID,22.6704,VALID,7,VALID,0.637109,
2011-02-13, 02:23:04,VALID,1001.85,VALID,0,INVALID,163.815,VALID,0,VALID,22.6492,VALID,7,VALID,0.61875,
2011-02-13, 02:24:04,VALID,1001.86,VALID,0,INVALID,163.784,VALID,0,VALID,22.6704,VALID,10,VALID,0.635547,
2011-02-13, 02:25:04,VALID,1001.83,VALID,0,INVALID,163.769,VALID,0,VALID,22.6721,VALID,17,VALID,0.746484,
2011-02-13, 02:26:04,VALID,1001.83,VALID,0,INVALID,163.792,VALID,0,VALID,22.6704,VALID,19,VALID,0.649219,
2011-02-13, 02:27:04,VALID,1001.83,VALID,0,INVALID,163.815,VALID,0,VALID,22.6915,VALID,19,VALID,0.599219,
2011-02-13, 02:28:04,VALID,1001.82,VALID,0,INVALID,163.784,VALID,0,VALID,22.6315,VALID,19,VALID,0.501953,
2011-02-13, 02:29:04,VALID,1001.79,VALID,0,INVALID,163.792,VALID,0,VALID,22.5925,VALID,19,VALID,0.4,
2011-02-13, 02:30:04,VALID,1001.81,VALID,0,INVALID,163.815,VALID,0,VALID,22.5731,VALID,19,VALID,0.327734,
2011-02-13, 02:31:04,VALID,1001.8,VALID,0,INVALID,163.815,VALID,0,VALID,22.5731,VALID,19,VALID,0.300781,
2011-02-13, 02:32:04,VALID,1001.82,VALID,0,INVALID,163.815,VALID,0,VALID,22.6103,VALID,19,VALID,0.239063,
2011-02-13, 02:33:04,VALID,1001.81,VALID,0,INVALID,163.792,VALID,0,VALID,22.6686,VALID,19,VALID,0.324219,
2011-02-13, 02:34:04,VALID,1001.82,VALID,0,INVALID,163.8,VALID,0,VALID,22.6915,VALID,19,VALID,0.347266,
2011-02-13, 02:35:04,VALID,1001.79,VALID,0,INVALID,163.8,VALID,0,VALID,22.6526,VALID,19,VALID,0.281641,
2011-02-13, 02:36:04,VALID,1001.8,VALID,0,INVALID,163.777,VALID,0,VALID,22.6509,VALID,19,VALID,0.126953,
2011-02-13, 02:37:04,VALID,1001.78,VALID,0,INVALID,163.792,VALID,0,VALID,22.7093,VALID,19,VALID,0.197266,
2011-02-13, 02:38:04,VALID,1001.77,VALID,0,INVALID,163.815,VALID,0,VALID,22.7499,VALID,19,VALID,0.425391,
2011-02-13, 02:39:04,VALID,1001.77,VALID,0,INVALID,163.8,VALID,0,VALID,22.7093,VALID,19,VALID,0.481641,
2011-02-13, 02:40:04,VALID,1001.74,VALID,0,INVALID,163.777,VALID,0,VALID,22.6332,VALID,19,VALID,0.507031,
2011-02-13, 02:41:04,VALID,1001.74,VALID,0,INVALID,163.777,VALID,0,VALID,22.5925,VALID,19,VALID,0.51875,
2011-02-13, 02:42:04,VALID,1001.79,VALID,0,INVALID,163.807,VALID,0,VALID,22.5714,VALID,19,VALID,0.441406,
2011-02-13, 02:43:04,VALID,1001.73,VALID,0,INVALID,163.8,VALID,0,VALID,22.5925,VALID,19,VALID,0.390234,
2011-02-13, 02:44:04,VALID,1001.74,VALID,0,INVALID,163.807,VALID,0,VALID,22.6315,VALID,18,VALID,0.300781,
2011-02-13, 02:45:04,VALID,1001.74,VALID,0,INVALID,163.807,VALID,0,VALID,22.6915,VALID,18,VALID,0.301953,
2011-02-13, 02:46:04,VALID,1001.75,VALID,0,INVALID,163.823,VALID,0,VALID,22.6898,VALID,18,VALID,0,
2011-02-13, 02:47:04,VALID,1001.73,VALID,0,INVALID,163.807,VALID,0,VALID,22.7093,VALID,18,VALID,0.156641,
2011-02-13, 02:48:04,VALID,1001.73,VALID,0,INVALID,163.807,VALID,0,VALID,22.7677,VALID,18,VALID,0.275781,
2011-02-13, 02:49:04,VALID,1001.71,VALID,0,INVALID,163.792,VALID,0,VALID,22.8066,VALID,18,VALID,0.182031,
2011-02-13, 02:50:04,VALID,1001.75,VALID,0,INVALID,163.8,VALID,0,VALID,22.826,VALID,18,VALID,0.0886719,
2011-02-13, 02:51:04,VALID,1001.75,VALID,0,INVALID,163.792,VALID,0,VALID,22.8066,VALID,18,VALID,0.432422,
2011-02-13, 02:52:04,VALID,1001.72,VALID,0,INVALID,163.807,VALID,0,VALID,22.8066,VALID,18,VALID,0.419922,
2011-02-13, 02:53:04,VALID,1001.75,VALID,0,INVALID,163.784,VALID,0,VALID,22.8066,VALID,18,VALID,0.480859,
2011-02-13, 02:54:04,VALID,1001.7,VALID,0,INVALID,163.784,VALID,0,VALID,22.7888,VALID,18,VALID,0.502734,
2011-02-13, 02:55:04,VALID,1001.7,VALID,0,INVALID,163.815,VALID,0,VALID,22.7287,VALID,18,VALID,0.363281,
2011-02-13, 02:56:04,VALID,1001.68,VALID,0,INVALID,163.823,VALID,0,VALID,22.7287,VALID,18,VALID,0.519922,
2011-02-13, 02:57:04,VALID,1001.66,VALID,0,INVALID,163.8,VALID,0,VALID,22.7093,VALID,18,VALID,0.226172,
2011-02-13, 02:58:04,VALID,1001.65,VALID,0,INVALID,163.8,VALID,0,VALID,22.7093,VALID,18,VALID,0.303125,
2011-02-13, 02:59:04,VALID,1001.63,VALID,0,INVALID,163.777,VALID,0,VALID,22.7093,VALID,18,VALID,0.380078,
2011-02-13, 03:00:04,VALID,1001.61,VALID,0,INVALID,163.823,VALID,0,VALID,22.7287,VALID,18,VALID,0.372656,
2011-02-13, 03:01:04,VALID,1001.65,VALID,0,INVALID,163.762,VALID,0,VALID,22.7093,VALID,18,VALID,0.326172,
2011-02-13, 03:02:04,VALID,1001.63,VALID,0,INVALID,163.807,VALID,0,VALID,22.711,VALID,18,VALID,0.323047,
2011-02-13, 03:03:04,VALID,1001.6,VALID,0,INVALID,163.8,VALID,0,VALID,22.7093,VALID,18,VALID,0.409375,
2011-02-13, 03:04:04,VALID,1001.58,VALID,0,INVALID,163.792,VALID,0,VALID,22.6881,VALID,18,VALID,0.458594,
2011-02-13, 03:05:04,VALID,1001.55,VALID,0,INVALID,163.8,VALID,0,VALID,22.6898,VALID,18,VALID,0.400781,
2011-02-13, 03:06:04,VALID,1001.56,VALID,0,INVALID,163.815,VALID,0,VALID,22.6898,VALID,18,VALID,0.485938,
2011-02-13, 03:07:04,VALID,1001.56,VALID,0,INVALID,163.784,VALID,0,VALID,22.7305,VALID,18,VALID,0.421484,
2011-02-13, 03:08:04,VALID,1001.55,VALID,0,INVALID,163.792,VALID,0,VALID,22.7093,VALID,18,VALID,0.396094,
2011-02-13, 03:09:04,VALID,1001.54,VALID,0,INVALID,163.83,VALID,0,VALID,22.6898,VALID,18,VALID,0.272656,
2011-02-13, 03:10:04,VALID,1001.53,VALID,0,INVALID,163.807,VALID,0,VALID,22.6915,VALID,18,VALID,0.313672,
2011-02-13, 03:11:04,VALID,1001.53,VALID,0,INVALID,163.784,VALID,0.100563,VALID,22.6509,VALID,18,VALID,0.293359,
2011-02-13, 03:12:04,VALID,1001.51,VALID,0,INVALID,163.815,VALID,0,VALID,22.6704,VALID,18,VALID,0.390625,
2011-02-13, 03:13:04,VALID,1001.49,VALID,0,INVALID,163.823,VALID,0,VALID,22.6898,VALID,18,VALID,0.365234,
2011-02-13, 03:14:04,VALID,1001.5,VALID,0,INVALID,163.8,VALID,0,VALID,22.6704,VALID,17,VALID,0.553906,
2011-02-13, 03:15:04,VALID,1001.5,VALID,0,INVALID,163.823,VALID,0,VALID,22.6509,VALID,10,VALID,0.635547,
2011-02-13, 03:16:04,VALID,1001.49,VALID,0,INVALID,163.8,VALID,0,VALID,22.6315,VALID,7,VALID,0.410156,
2011-02-13, 03:17:04,VALID,1001.51,VALID,0,INVALID,163.807,VALID,0,VALID,22.5925,VALID,7,VALID,0.457031,
2011-02-13, 03:18:04,VALID,1001.53,VALID,0,INVALID,163.8,VALID,0,VALID,22.5714,VALID,7,VALID,0.421484,
2011-02-13, 03:19:04,VALID,1001.54,VALID,0,INVALID,163.83,VALID,0,VALID,22.5731,VALID,7,VALID,0.170703,
2011-02-13, 03:20:04,VALID,1001.57,VALID,0,INVALID,163.83,VALID,0,VALID,22.5925,VALID,7,VALID,0,
2011-02-13, 03:21:04,VALID,1001.59,VALID,0,INVALID,163.815,VALID,0,VALID,22.6137,VALID,7,VALID,0,
2011-02-13, 03:22:04,VALID,1001.64,VALID,0,INVALID,163.807,VALID,0,VALID,22.612,VALID,7,VALID,0,
2011-02-13, 03:23:04,VALID,1001.65,VALID,0,INVALID,163.807,VALID,0,VALID,22.612,VALID,7,VALID,0,
2011-02-13, 03:24:04,VALID,1001.68,VALID,0,INVALID,163.762,VALID,0,VALID,22.6315,VALID,7,VALID,0,
2011-02-13, 03:25:04,VALID,1001.67,VALID,0,INVALID,163.815,VALID,0,VALID,22.6315,VALID,7,VALID,0,
2011-02-13, 03:26:04,VALID,1001.7,VALID,0,INVALID,163.815,VALID,0,VALID,22.6332,VALID,7,VALID,0,
2011-02-13, 03:27:04,VALID,1001.66,VALID,0,INVALID,163.792,VALID,0,VALID,22.6526,VALID,7,VALID,0,
2011-02-13, 03:28:04,VALID,1001.64,VALID,0,INVALID,163.792,VALID,0,VALID,22.6704,VALID,7,VALID,0.394141,
2011-02-13, 03:29:04,VALID,1001.66,VALID,0,INVALID,163.784,VALID,0,VALID,22.6898,VALID,7,VALID,0.514453,
2011-02-13, 03:30:04,VALID,1001.65,VALID,0,INVALID,163.807,VALID,0,VALID,22.6898,VALID,7,VALID,0.580469,
2011-02-13, 03:31:04,VALID,1001.66,VALID,0,INVALID,163.823,VALID,0,VALID,22.6898,VALID,6,VALID,0.585547,
2011-02-13, 03:32:04,VALID,1001.65,VALID,0,INVALID,163.8,VALID,0,VALID,22.6704,VALID,5,VALID,0.564453,
2011-02-13, 03:33:04,VALID,1001.67,VALID,0,INVALID,163.8,VALID,0.100563,VALID,22.6704,VALID,5,VALID,0.566406,
2011-02-13, 03:34:04,VALID,1001.65,VALID,0,INVALID,163.8,VALID,0,VALID,22.6704,VALID,5,VALID,0.635547,
2011-02-13, 03:35:04,VALID,1001.64,VALID,0,INVALID,163.792,VALID,0,VALID,22.6509,VALID,5,VALID,0.603906,
2011-02-13, 03:36:04,VALID,1001.65,VALID,0,INVALID,163.807,VALID,0,VALID,22.6315,VALID,5,VALID,0.522656,
2011-02-13, 03:37:04,VALID,1001.65,VALID,0,INVALID,163.807,VALID,0,VALID,22.612,VALID,5,VALID,0.384375,
2011-02-13, 03:38:04,VALID,1001.62,VALID,0,INVALID,163.777,VALID,0,VALID,22.6103,VALID,5,VALID,0.418359,
2011-02-13, 03:39:04,VALID,1001.65,VALID,0,INVALID,163.823,VALID,0,VALID,22.6315,VALID,5,VALID,0.511328,
2011-02-13, 03:40:04,VALID,1001.68,VALID,0,INVALID,163.807,VALID,0,VALID,22.6315,VALID,5,VALID,0.611719,
2011-02-13, 03:41:04,VALID,1001.67,VALID,0,INVALID,163.792,VALID,0,VALID,22.6509,VALID,3,VALID,0.63125,
2011-02-13, 03:42:04,VALID,1001.66,VALID,0,INVALID,163.823,VALID,0,VALID,22.6315,VALID,2,VALID,0.670703,
2011-02-13, 03:43:04,VALID,1001.69,VALID,0,INVALID,163.815,VALID,0,VALID,22.6721,VALID,2,VALID,0.640234,
2011-02-13, 03:44:04,VALID,1001.7,VALID,0,INVALID,163.792,VALID,0,VALID,22.6721,VALID,2,VALID,0.609766,